Norwood, MA

10:50 PM EDT on May 22, 2017 (GMT -0400)
Norwood Memorial

Weather History for KOWD - March, 2014

Change the Weather History Date:

Friday, March 14, 2014

  Actual Average Record
Temperature  
Mean Temperature 24 °F -  
Max Temperature 37 °F 41 °F 70 °F (2007)
Min Temperature 10 °F 24 °F 10 °F (2014)
Degree Days  
Heating Degree Days 42    
Moisture  
Dew Point 9 °F    
Average Humidity 49    
Maximum Humidity 68    
Minimum Humidity 28    
Precipitation  
Precipitation 0.00 in - - ()
Sea Level Pressure  
Sea Level Pressure 30.06 in    
Wind  
Wind Speed 8 mph (SW)    
Max Wind Speed 15 mph    
Max Gust Speed 25 mph    
Visibility 10 miles    
Events      
Averages and records for this station are not official NWS values.
T = Trace of Precipitation, MM = Missing Value Source: NWS Daily Summary

Daily Weather History Graph

Daily Weather History Graph

Search for Another Location

Airport or City:

Trip Planner

Search our weather history database for the weather conditions in past years. The results will help you decide how hot, cold, wet, or windy it might be!

Date:

Astronomy

Mar. 14, 2014 Rise Set
Actual Time 6:58 AM EDT 6:50 PM EDT
Civil Twilight 6:30 AM EDT 7:17 PM EDT
Nautical Twilight 5:57 AM EDT 7:50 PM EDT
Astronomical Twilight 5:25 AM EDT 8:23 PM EDT
Moon 5:07 PM EDT (3/14) 5:38 AM EDT (3/14)
Length of Visible Light 12h 47m
Length of Day
11h 51m
Waxing Gibbous, 96% of the Moon is Illuminated
Mar 14
Waxing Gibbous
Mar 16
Full
Mar 23
Last Quarter
Mar 30
New
Apr 7
First Quarter

Hourly Weather History & Observations

Time (EDT) Temp. Windchill Dew Point Humidity Pressure Visibility Wind Dir Wind Speed Gust Speed Precip Events Conditions
12:53 AM 16.0 °F 4.4 °F -2.9 °F 43% 29.98 in 10.0 mi WNW 9.2 mph - N/A   Clear
1:53 AM 15.1 °F 5.2 °F -2.9 °F 45% 30.00 in 10.0 mi Variable 6.9 mph - N/A   Clear
2:53 AM 14.0 °F 2.9 °F -2.0 °F 49% 30.02 in 10.0 mi West 8.1 mph - N/A   Clear
3:53 AM 12.9 °F 2.6 °F -0.9 °F 54% 30.04 in 10.0 mi WSW 6.9 mph - N/A   Clear
4:53 AM 12.9 °F - -0.9 °F 54% 30.07 in 10.0 mi Calm Calm - N/A   Clear
5:53 AM 10.0 °F - -0.0 °F 64% 30.11 in 10.0 mi Calm Calm - N/A   Clear
6:53 AM 10.0 °F 3.6 °F 1.0 °F 67% 30.13 in 10.0 mi SW 3.5 mph - N/A   Clear
7:53 AM 14.0 °F 8.2 °F 1.9 °F 59% 30.16 in 10.0 mi SW 3.5 mph - N/A   Clear
8:53 AM 19.0 °F 10.0 °F 3.9 °F 52% 30.19 in 10.0 mi WSW 6.9 mph - N/A   Clear
9:53 AM 21.9 °F 14.5 °F 5.0 °F 48% 30.19 in 10.0 mi West 5.8 mph - N/A   Clear
10:53 AM 26.1 °F 15.6 °F 9.0 °F 49% 30.18 in 10.0 mi SW 11.5 mph - N/A   Clear
11:53 AM 30.0 °F 22.4 °F 7.0 °F 38% 30.15 in 10.0 mi SW 8.1 mph - N/A   Partly Cloudy
12:53 PM 34.0 °F 24.2 °F 8.1 °F 34% 30.14 in 10.0 mi SW 15.0 mph 23.0 mph N/A   Mostly Cloudy
1:53 PM 34.0 °F 26.0 °F 6.1 °F 31% 30.10 in 10.0 mi SW 10.4 mph - N/A   Overcast
2:53 PM 36.0 °F 28.0 °F 7.0 °F 30% 30.07 in 10.0 mi SW 11.5 mph 20.7 mph N/A   Scattered Clouds
3:53 PM 37.9 °F 30.5 °F 7.0 °F 28% 30.04 in 10.0 mi SSW 11.5 mph 20.7 mph N/A   Scattered Clouds
4:53 PM 37.9 °F 29.6 °F 10.9 °F 33% 30.02 in 10.0 mi SSW 13.8 mph - N/A   Clear
5:53 PM 37.0 °F 28.9 °F 14.0 °F 39% 30.00 in 10.0 mi SSW 12.7 mph 25.3 mph N/A   Clear
6:53 PM 37.0 °F 28.9 °F 17.1 °F 44% 29.99 in 10.0 mi South 12.7 mph 19.6 mph N/A   Clear
7:53 PM 36.0 °F 27.5 °F 19.9 °F 52% 29.99 in 10.0 mi SSW 12.7 mph 20.7 mph N/A   Clear
8:53 PM 36.0 °F 28.0 °F 21.9 °F 57% 29.98 in 10.0 mi SSW 11.5 mph - N/A   Clear
9:53 PM 36.0 °F 28.5 °F 25.0 °F 64% 29.96 in 10.0 mi SSW 10.4 mph 20.7 mph N/A   Clear
10:53 PM 37.0 °F 29.8 °F 26.1 °F 65% 29.96 in 10.0 mi SSW 10.4 mph 23.0 mph N/A   Clear
11:53 PM 37.9 °F 30.5 °F 28.0 °F 68% 29.94 in 10.0 mi SSW 11.5 mph - N/A   Clear